AEROCUBE 8C

Last updated on Tue Jul 01 2025 00:03:44 GMT+0000 (Coordinated Universal Time)

1 41853U 16067F 25181.49473395 .00004890 00000+0 24436-3 0 9994 2 41853 98.0936 18.4730 0006045 180.1714 179.9517 15.17978084472594
UTC large
Height (km)
Speed (km/s)
/
Latitude / Longitude
Inclination (degrees)
Orbital Period (minutes)
Azimuth
Elevation
Range (km)
Doppler Factor

Next 0 passes for location: London (51.5072 / 0.1276)

Sorry there are no passes over London.